Tracking 31027 objects as of 19-Jul-2025
HD Live streaming from Space Station
objects crossing your sky now

GSTAR 1

Track GSTAR 1 now!
GSTAR 1 is classified as:


NORAD ID: 15677
Int'l Code: 1985-035A
Perigee: 35,762.9 km
Apogee: 35,823.8 km
Inclination: 14.4 °
Period: 1,436.1 minutes
Semi major axis: 42164 km
RCS: 1.6993 m2 (large)
Launch date: May 8, 1985
Source: United States (US)
Launch site: FRENCH GUIANA (FRGUI)
Your satellite tracking list
GALASSIA
Track 1 satellite(s)




NASA's NSSDC Master Catalog

Two Line Element Set (TLE):
1 15677U 85035A   25198.46504381 -.00000112  00000-0  00000+0 0  9997
2 15677  14.4478 351.2583 0007227 135.3797 231.0215  1.00273161121881
Source of the keplerian elements: AFSPC